VXP1398 KHVN-KJQF

Flight info

Callsign VXP1398
Flight time 1h 30m
Altitude 36000
Route JUDDS RONGE PWL BIZEX Q75 GVE AIROW NASCR1
Aircraft B738/M-SDE2E3FGHIRWXY/LB1

Departure

Time 2026-05-08 19:24
Airport Tweed New Haven Airport (KHVN)

Arrival

Time 2026-05-08 20:54
Airport Concord-Padgett Regional Airport (KJQF)
Time Latitude Longitude Altitude Speed Heading
2026-05-08 18:51 41.26913 -72.89003 30 ft 0 kts 310°
2026-05-08 19:17 41.26913 -72.89002 30 ft 1 kts 310°
2026-05-08 19:17 41.26903 -72.88987 30 ft 2 kts 310°
2026-05-08 19:17 41.26893 -72.88972 29 ft 2 kts 310°
2026-05-08 19:17 41.26883 -72.88957 29 ft 2 kts 320°
2026-05-08 19:18 41.26870 -72.88947 28 ft 2 kts 345°
2026-05-08 19:18 41.26855 -72.88945 28 ft 2 kts
2026-05-08 19:18 41.26841 -72.88950 28 ft 2 kts 29°
2026-05-08 19:18 41.26834 -72.88957 28 ft 1 kts 41°
2026-05-08 19:19 41.26830 -72.88962 28 ft 0 kts 41°
2026-05-08 19:21 41.26831 -72.88961 28 ft 0 kts 41°
2026-05-08 19:21 41.26846 -72.88944 28 ft 3 kts 41°
2026-05-08 19:21 41.26868 -72.88919 28 ft 4 kts 39°
2026-05-08 19:21 41.26902 -72.88907 28 ft 8 kts
2026-05-08 19:22 41.26934 -72.88905 29 ft 3 kts
2026-05-08 19:22 41.26961 -72.88902 29 ft 6 kts 11°
2026-05-08 19:22 41.27018 -72.88882 30 ft 8 kts 28°
2026-05-08 19:22 41.27064 -72.88837 29 ft 8 kts 38°
2026-05-08 19:23 41.27107 -72.88791 29 ft 8 kts 40°
2026-05-08 19:23 41.27120 -72.88736 28 ft 6 kts 136°
2026-05-08 19:23 41.27047 -72.88729 27 ft 32 kts 183°
2026-05-08 19:23 41.26521 -72.88763 26 ft 116 kts 183°
2026-05-08 19:24 41.25472 -72.88812 102 ft 176 kts 179°
2026-05-08 19:24 41.24186 -72.88743 773 ft 191 kts 186°
2026-05-08 19:24 41.22912 -72.89054 1538 ft 193 kts 206°
2026-05-08 19:24 41.21584 -72.89658 2012 ft 212 kts 195°
2026-05-08 19:25 41.19999 -72.89790 1976 ft 242 kts 186°
2026-05-08 19:25 41.18319 -72.89821 1922 ft 237 kts 186°
2026-05-08 19:25 41.16714 -72.89861 1915 ft 227 kts 186°
2026-05-08 19:25 41.15142 -72.89891 1920 ft 228 kts 185°
2026-05-08 19:26 41.13529 -72.89915 1945 ft 230 kts 186°
2026-05-08 19:26 41.11936 -72.89954 1996 ft 230 kts 186°
2026-05-08 19:26 41.10366 -72.89991 2259 ft 224 kts 185°
2026-05-08 19:26 41.08774 -72.90018 2711 ft 233 kts 186°
2026-05-08 19:27 41.07205 -72.90374 3128 ft 229 kts 206°
2026-05-08 19:27 41.05881 -72.91539 3527 ft 228 kts 232°
2026-05-08 19:27 41.05069 -72.93346 3981 ft 236 kts 253°
2026-05-08 19:27 41.04622 -72.95445 4414 ft 241 kts 257°
2026-05-08 19:28 41.04207 -72.97627 4839 ft 244 kts 257°
2026-05-08 19:28 41.03796 -72.99783 5249 ft 244 kts 258°
2026-05-08 19:28 41.03685 -73.02027 5670 ft 244 kts 277°
2026-05-08 19:28 41.04124 -73.04198 6116 ft 247 kts 287°
2026-05-08 19:29 41.04681 -73.06319 6530 ft 248 kts 287°
2026-05-08 19:29 41.05253 -73.08488 6957 ft 246 kts 287°
2026-05-08 19:29 41.05809 -73.10645 7551 ft 254 kts 287°
2026-05-08 19:29 41.06352 -73.12793 8586 ft 248 kts 287°
2026-05-08 19:30 41.06879 -73.14957 9550 ft 245 kts 287°
2026-05-08 19:30 41.07371 -73.17081 10356 ft 247 kts 287°
2026-05-08 19:30 41.07891 -73.19309 10857 ft 261 kts 287°
2026-05-08 19:30 41.08453 -73.21663 11302 ft 277 kts 287°
2026-05-08 19:31 41.09047 -73.24174 11733 ft 292 kts 286°
2026-05-08 19:31 41.09273 -73.26879 12148 ft 311 kts 265°
2026-05-08 19:31 41.08504 -73.29652 12601 ft 333 kts 245°
2026-05-08 19:31 41.07241 -73.32304 13043 ft 349 kts 243°
2026-05-08 19:32 41.05969 -73.35065 13480 ft 353 kts 245°
2026-05-08 19:32 41.04784 -73.37896 13916 ft 353 kts 247°
2026-05-08 19:32 41.03636 -73.40802 14360 ft 356 kts 248°
2026-05-08 19:32 41.02500 -73.43723 14787 ft 358 kts 248°
2026-05-08 19:33 41.01376 -73.46626 15209 ft 359 kts 248°
2026-05-08 19:33 41.00232 -73.49585 15639 ft 360 kts 248°
2026-05-08 19:33 40.99097 -73.52527 16052 ft 362 kts 249°
2026-05-08 19:33 40.97944 -73.55518 16476 ft 365 kts 249°
2026-05-08 19:34 40.96798 -73.58491 16840 ft 366 kts 249°
2026-05-08 19:34 40.95631 -73.61510 16986 ft 370 kts 249°
2026-05-08 19:34 40.94463 -73.64531 17043 ft 368 kts 249°
2026-05-08 19:34 40.93292 -73.67554 17033 ft 373 kts 248°
2026-05-08 19:35 40.92119 -73.70583 18058 ft 369 kts 249°
2026-05-08 19:35 40.90961 -73.73566 18794 ft 373 kts 249°
2026-05-08 19:35 40.89767 -73.76647 19598 ft 375 kts 249°
2026-05-08 19:35 40.88580 -73.79706 20257 ft 379 kts 249°
2026-05-08 19:36 40.87388 -73.82775 20888 ft 383 kts 249°
2026-05-08 19:36 40.86159 -73.85930 21688 ft 384 kts 249°
2026-05-08 19:36 40.84949 -73.89036 22196 ft 390 kts 249°
2026-05-08 19:36 40.83710 -73.92212 22941 ft 390 kts 249°
2026-05-08 19:37 40.82458 -73.95416 23528 ft 394 kts 249°
2026-05-08 19:37 40.81202 -73.98626 24173 ft 397 kts 249°
2026-05-08 19:37 40.79929 -74.01878 24709 ft 401 kts 249°
2026-05-08 19:37 40.78650 -74.05139 25314 ft 403 kts 249°
2026-05-08 19:38 40.77353 -74.08447 25818 ft 407 kts 249°
2026-05-08 19:38 40.76051 -74.11761 26414 ft 409 kts 249°
2026-05-08 19:38 40.74741 -74.15093 26887 ft 413 kts 249°
2026-05-08 19:38 40.73435 -74.18411 27430 ft 415 kts 249°
2026-05-08 19:39 40.72112 -74.21757 28282 ft 409 kts 249°
2026-05-08 19:39 40.70793 -74.25082 29079 ft 403 kts 249°
2026-05-08 19:39 40.69521 -74.28300 29742 ft 400 kts 249°
2026-05-08 19:39 40.68245 -74.31525 30361 ft 399 kts 249°
2026-05-08 19:40 40.66970 -74.34751 30918 ft 397 kts 249°
2026-05-08 19:40 40.65685 -74.37994 31408 ft 396 kts 250°
2026-05-08 19:40 40.64420 -74.41185 31844 ft 395 kts 250°
2026-05-08 19:40 40.63152 -74.44380 32328 ft 394 kts 250°
2026-05-08 19:41 40.61880 -74.47581 32772 ft 392 kts 250°
2026-05-08 19:41 40.60633 -74.50710 33255 ft 390 kts 250°
2026-05-08 19:41 40.59383 -74.53845 33677 ft 389 kts 250°
2026-05-08 19:41 40.58128 -74.56994 34051 ft 388 kts 250°
2026-05-08 19:42 40.56878 -74.60125 34341 ft 387 kts 250°
2026-05-08 19:42 40.55628 -74.63253 34667 ft 386 kts 250°
2026-05-08 19:42 40.54385 -74.66357 35030 ft 385 kts 249°
2026-05-08 19:42 40.53140 -74.69466 35301 ft 386 kts 249°
2026-05-08 19:43 40.51894 -74.72588 35509 ft 389 kts 249°
2026-05-08 19:43 40.50627 -74.75745 35861 ft 387 kts 249°
2026-05-08 19:43 40.49385 -74.78841 35902 ft 390 kts 249°
2026-05-08 19:44 40.46846 -74.85142 35964 ft 387 kts 249°
2026-05-08 19:44 40.44353 -74.91312 35946 ft 383 kts 249°
2026-05-08 19:45 40.41608 -74.97337 35942 ft 390 kts 242°
2026-05-08 19:45 40.38011 -75.02807 35949 ft 399 kts 237°
2026-05-08 19:46 40.34222 -75.08115 35949 ft 400 kts 236°
2026-05-08 19:46 40.28571 -75.16032 35962 ft 397 kts 236°
2026-05-08 19:47 40.24777 -75.21354 35951 ft 400 kts 236°
2026-05-08 19:47 40.20976 -75.26650 35710 ft 397 kts 236°
2026-05-08 19:48 40.19115 -75.29240 35923 ft 396 kts 236°
2026-05-08 19:48 40.17212 -75.31896 35950 ft 400 kts 236°
2026-05-08 19:48 40.13401 -75.37199 35954 ft 400 kts 237°
2026-05-08 19:49 40.09602 -75.42464 35959 ft 396 kts 237°
2026-05-08 19:49 40.05806 -75.47735 35958 ft 398 kts 236°
2026-05-08 19:50 40.02032 -75.52957 35976 ft 399 kts 236°
2026-05-08 19:50 39.98220 -75.58223 35973 ft 398 kts 236°
2026-05-08 19:51 39.94427 -75.63437 35986 ft 395 kts 237°
2026-05-08 19:51 39.90687 -75.68661 35976 ft 394 kts 238°
2026-05-08 19:52 39.87258 -75.74173 35959 ft 392 kts 241°
2026-05-08 19:52 39.83875 -75.79679 35971 ft 388 kts 240°
2026-05-08 19:53 39.80466 -75.85149 35966 ft 388 kts 240°
2026-05-08 19:53 39.77065 -75.90590 35981 ft 388 kts 240°
2026-05-08 19:54 39.73672 -75.95992 35965 ft 386 kts 240°
2026-05-08 19:54 39.70256 -76.01419 35954 ft 387 kts 240°
2026-05-08 19:55 39.66870 -76.06784 35973 ft 387 kts 240°
2026-05-08 19:55 39.63479 -76.12146 35964 ft 383 kts 240°
2026-05-08 19:56 39.60082 -76.17530 35981 ft 386 kts 240°
2026-05-08 19:56 39.56635 -76.22860 35982 ft 386 kts 239°
2026-05-08 19:57 39.53190 -76.28136 36008 ft 386 kts 239°
2026-05-08 19:57 39.49726 -76.33456 36002 ft 382 kts 240°
2026-05-08 19:58 39.46294 -76.38705 36006 ft 385 kts 239°
2026-05-08 19:58 39.42549 -76.43763 35989 ft 394 kts 235°
2026-05-08 19:59 39.38669 -76.48716 36050 ft 391 kts 236°
2026-05-08 19:59 39.34889 -76.53606 35993 ft 383 kts 236°
2026-05-08 20:00 39.31151 -76.58495 35993 ft 388 kts 237°
2026-05-08 20:00 39.27370 -76.63408 35962 ft 386 kts 236°
2026-05-08 20:01 39.23567 -76.68368 35997 ft 390 kts 236°
2026-05-08 20:01 39.19786 -76.73291 35978 ft 384 kts 236°
2026-05-08 20:02 39.15997 -76.78183 35995 ft 387 kts 236°
2026-05-08 20:02 39.12211 -76.83078 35980 ft 386 kts 236°
2026-05-08 20:03 39.08417 -76.87981 36005 ft 386 kts 236°
2026-05-08 20:03 39.04631 -76.92860 35969 ft 385 kts 236°
2026-05-08 20:04 39.00899 -76.97658 35988 ft 380 kts 236°
2026-05-08 20:04 38.97142 -77.02508 35975 ft 386 kts 236°
2026-05-08 20:05 38.93349 -77.07380 35985 ft 385 kts 236°
2026-05-08 20:05 38.89601 -77.12194 35985 ft 385 kts 236°
2026-05-08 20:06 38.85831 -77.17025 35990 ft 384 kts 236°
2026-05-08 20:06 38.82055 -77.21860 35984 ft 383 kts 236°
2026-05-08 20:07 38.78283 -77.26698 35976 ft 382 kts 236°
2026-05-08 20:07 38.74533 -77.31476 35998 ft 383 kts 236°
2026-05-08 20:08 38.70675 -77.36217 35998 ft 386 kts 233°
2026-05-08 20:08 38.66705 -77.40748 35984 ft 383 kts 233°
2026-05-08 20:09 38.62716 -77.45330 35990 ft 387 kts 233°
2026-05-08 20:09 38.58749 -77.49886 35994 ft 382 kts 234°
2026-05-08 20:10 38.54772 -77.54467 36010 ft 385 kts 233°
2026-05-08 20:10 38.50835 -77.58986 35982 ft 380 kts 233°
2026-05-08 20:11 38.46888 -77.63524 35986 ft 383 kts 233°
2026-05-08 20:11 38.42921 -77.68075 36012 ft 387 kts 233°
2026-05-08 20:12 38.38933 -77.72632 35970 ft 381 kts 233°
2026-05-08 20:12 38.34992 -77.77141 35955 ft 384 kts 233°
2026-05-08 20:13 38.31027 -77.81651 35973 ft 383 kts 233°
2026-05-08 20:13 38.27078 -77.86156 35986 ft 379 kts 233°
2026-05-08 20:14 38.23142 -77.90632 35994 ft 382 kts 233°
2026-05-08 20:14 38.19161 -77.95155 35961 ft 383 kts 233°
2026-05-08 20:15 38.15208 -77.99629 35984 ft 379 kts 233°
2026-05-08 20:15 38.11388 -78.03973 36003 ft 381 kts 233°
2026-05-08 20:16 38.07319 -78.08588 35994 ft 382 kts 233°
2026-05-08 20:16 38.03369 -78.13024 36006 ft 379 kts 232°
2026-05-08 20:17 37.99611 -78.17640 35971 ft 372 kts 238°
2026-05-08 20:17 37.96225 -78.22558 35984 ft 371 kts 239°
2026-05-08 20:18 37.94532 -78.25001 36200 ft 370 kts 238°
2026-05-08 20:18 37.92823 -78.27431 35823 ft 366 kts 238°
2026-05-08 20:18 37.91135 -78.29823 35958 ft 364 kts 239°
2026-05-08 20:18 37.89453 -78.32227 36219 ft 370 kts 239°
2026-05-08 20:19 37.87734 -78.34696 36005 ft 371 kts 238°
2026-05-08 20:19 37.86035 -78.37112 35768 ft 364 kts 239°
2026-05-08 20:19 37.84359 -78.39476 35957 ft 363 kts 239°
2026-05-08 20:19 37.82668 -78.41878 35946 ft 369 kts 239°
2026-05-08 20:20 37.79245 -78.46732 35983 ft 369 kts 238°
2026-05-08 20:20 37.75835 -78.51522 35955 ft 365 kts 239°
2026-05-08 20:21 37.72455 -78.56293 35970 ft 367 kts 238°
2026-05-08 20:21 37.69067 -78.61060 35973 ft 365 kts 239°
2026-05-08 20:22 37.65678 -78.65836 35970 ft 365 kts 238°
2026-05-08 20:22 37.62281 -78.70613 35978 ft 365 kts 238°
2026-05-08 20:23 37.58910 -78.75342 35977 ft 366 kts 239°
2026-05-08 20:23 37.55543 -78.80071 35979 ft 364 kts 238°
2026-05-08 20:24 37.52150 -78.84808 35981 ft 362 kts 239°
2026-05-08 20:24 37.48778 -78.89516 35974 ft 363 kts 238°
2026-05-08 20:25 37.45406 -78.94226 36011 ft 361 kts 239°
2026-05-08 20:25 37.42061 -78.98885 36033 ft 361 kts 238°
2026-05-08 20:26 37.38692 -79.03567 36040 ft 361 kts 239°
2026-05-08 20:26 37.35335 -79.08270 36044 ft 361 kts 238°
2026-05-08 20:27 37.31979 -79.12939 36045 ft 357 kts 238°
2026-05-08 20:27 37.28629 -79.17539 36033 ft 361 kts 239°
2026-05-08 20:28 37.25244 -79.22198 36038 ft 358 kts 238°
2026-05-08 20:28 37.22049 -79.26904 36026 ft 354 kts 241°
2026-05-08 20:29 37.18980 -79.31689 35635 ft 358 kts 241°
2026-05-08 20:29 37.17386 -79.34112 35142 ft 359 kts 241°
2026-05-08 20:29 37.15796 -79.36500 34665 ft 355 kts 240°
2026-05-08 20:30 37.14229 -79.38841 34214 ft 350 kts 240°
2026-05-08 20:30 37.12689 -79.41183 33741 ft 349 kts 241°
2026-05-08 20:30 37.11154 -79.43565 33316 ft 352 kts 242°
2026-05-08 20:30 37.09607 -79.45938 32936 ft 359 kts 240°
2026-05-08 20:31 37.07997 -79.48382 32482 ft 365 kts 240°
2026-05-08 20:31 37.06384 -79.50816 32070 ft 367 kts 240°
2026-05-08 20:31 37.04764 -79.53274 31667 ft 368 kts 240°
2026-05-08 20:31 37.03121 -79.55743 31231 ft 371 kts 238°
2026-05-08 20:32 37.01449 -79.58223 30810 ft 374 kts 239°
2026-05-08 20:32 36.99789 -79.60700 30378 ft 377 kts 240°
2026-05-08 20:32 36.98132 -79.63195 30227 ft 370 kts 240°
2026-05-08 20:32 36.96465 -79.65709 30186 ft 370 kts 239°
2026-05-08 20:33 36.94845 -79.68155 30321 ft 374 kts 239°
2026-05-08 20:33 36.93164 -79.70696 30723 ft 376 kts 238°
2026-05-08 20:33 36.91529 -79.73148 31050 ft 372 kts 239°
2026-05-08 20:33 36.89878 -79.75620 30953 ft 361 kts 239°
2026-05-08 20:34 36.88296 -79.77976 30529 ft 354 kts 239°
2026-05-08 20:34 36.86731 -79.80343 30047 ft 354 kts 240°
2026-05-08 20:34 36.83537 -79.85183 29135 ft 372 kts 239°
2026-05-08 20:35 36.81853 -79.87713 28640 ft 380 kts 238°
2026-05-08 20:35 36.80175 -79.90212 28197 ft 382 kts 238°
2026-05-08 20:35 36.78452 -79.92781 27704 ft 387 kts 237°
2026-05-08 20:35 36.76732 -79.95345 27202 ft 389 kts 237°
2026-05-08 20:36 36.74993 -79.97927 26753 ft 392 kts 237°
2026-05-08 20:36 36.73124 -80.00447 26280 ft 401 kts 232°
2026-05-08 20:36 36.70941 -80.02679 25746 ft 414 kts 223°
2026-05-08 20:36 36.68426 -80.04432 25218 ft 416 kts 216°
2026-05-08 20:37 36.65794 -80.05970 24695 ft 413 kts 214°
2026-05-08 20:37 36.63181 -80.07455 24161 ft 413 kts 213°
2026-05-08 20:37 36.60575 -80.08939 23646 ft 414 kts 214°
2026-05-08 20:37 36.57991 -80.10418 23123 ft 412 kts 213°
2026-05-08 20:38 36.55396 -80.11901 22594 ft 407 kts 213°
2026-05-08 20:38 36.52831 -80.13361 22062 ft 404 kts 213°
2026-05-08 20:38 36.50281 -80.14811 21552 ft 406 kts 213°
2026-05-08 20:38 36.47704 -80.16270 21023 ft 402 kts 213°
2026-05-08 20:39 36.45188 -80.17691 20504 ft 397 kts 212°
2026-05-08 20:39 36.42671 -80.19114 19992 ft 397 kts 213°
2026-05-08 20:39 36.40171 -80.20531 19481 ft 397 kts 213°
2026-05-08 20:39 36.37667 -80.21949 18945 ft 394 kts 212°
2026-05-08 20:40 36.35218 -80.23333 18432 ft 391 kts 212°
2026-05-08 20:40 36.32727 -80.24741 17904 ft 387 kts 212°
2026-05-08 20:40 36.30298 -80.26113 17382 ft 385 kts 212°
2026-05-08 20:40 36.27890 -80.27474 16892 ft 382 kts 212°
2026-05-08 20:41 36.25473 -80.28835 16348 ft 376 kts 211°
2026-05-08 20:41 36.23115 -80.30161 15842 ft 370 kts 212°
2026-05-08 20:41 36.20781 -80.31473 15359 ft 365 kts 211°
2026-05-08 20:41 36.18505 -80.32755 14905 ft 359 kts 211°
2026-05-08 20:42 36.16241 -80.34032 14481 ft 355 kts 211°
2026-05-08 20:42 36.14000 -80.35295 14057 ft 356 kts 211°
2026-05-08 20:42 36.11752 -80.36559 13636 ft 355 kts 211°
2026-05-08 20:42 36.09503 -80.37821 13221 ft 351 kts 210°
2026-05-08 20:43 36.07306 -80.39049 12833 ft 343 kts 210°
2026-05-08 20:43 36.05161 -80.40249 12469 ft 336 kts 210°
2026-05-08 20:43 36.03063 -80.41424 12102 ft 329 kts 210°
2026-05-08 20:43 36.01002 -80.42580 11742 ft 323 kts 210°
2026-05-08 20:44 35.98949 -80.43730 11368 ft 317 kts 210°
2026-05-08 20:44 35.96956 -80.44845 11001 ft 312 kts 210°
2026-05-08 20:44 35.95021 -80.45926 10639 ft 308 kts 210°
2026-05-08 20:44 35.93080 -80.47012 10270 ft 304 kts 210°
2026-05-08 20:45 35.91142 -80.48096 9898 ft 301 kts 210°
2026-05-08 20:45 35.89276 -80.49139 9540 ft 297 kts 210°
2026-05-08 20:45 35.87410 -80.50181 9180 ft 294 kts 209°
2026-05-08 20:45 35.85544 -80.51223 8839 ft 290 kts 209°
2026-05-08 20:46 35.83707 -80.52248 8499 ft 286 kts 208°
2026-05-08 20:46 35.81903 -80.53252 8152 ft 283 kts 207°
2026-05-08 20:46 35.80137 -80.54234 7810 ft 280 kts 207°
2026-05-08 20:46 35.78363 -80.55220 7472 ft 277 kts 207°
2026-05-08 20:47 35.76610 -80.56197 7138 ft 274 kts 206°
2026-05-08 20:47 35.74887 -80.57156 6835 ft 270 kts 206°
2026-05-08 20:47 35.73199 -80.58094 6518 ft 262 kts 206°
2026-05-08 20:47 35.71564 -80.59003 6197 ft 257 kts 206°
2026-05-08 20:48 35.69953 -80.59897 5876 ft 251 kts 206°
2026-05-08 20:48 35.68389 -80.60764 5576 ft 242 kts 206°
2026-05-08 20:48 35.66863 -80.61612 5247 ft 236 kts 205°
2026-05-08 20:48 35.65384 -80.62432 4927 ft 230 kts 205°
2026-05-08 20:49 35.63940 -80.63232 4610 ft 226 kts 205°
2026-05-08 20:49 35.62537 -80.64010 4298 ft 222 kts 205°
2026-05-08 20:49 35.61130 -80.64790 3975 ft 218 kts 205°
2026-05-08 20:49 35.59763 -80.65548 3672 ft 215 kts 204°
2026-05-08 20:50 35.58424 -80.66287 3425 ft 209 kts 204°
2026-05-08 20:50 35.57103 -80.66985 3179 ft 203 kts 201°
2026-05-08 20:50 35.55772 -80.67460 3067 ft 192 kts 191°
2026-05-08 20:50 35.54516 -80.67703 3070 ft 176 kts 188°
2026-05-08 20:51 35.53312 -80.67918 3059 ft 172 kts 189°
2026-05-08 20:51 35.52114 -80.68050 3065 ft 173 kts 182°
2026-05-08 20:51 35.50922 -80.68197 2916 ft 171 kts 191°
2026-05-08 20:51 35.49768 -80.68456 2672 ft 164 kts 190°
2026-05-08 20:52 35.48650 -80.68700 2465 ft 162 kts 191°
2026-05-08 20:52 35.47539 -80.68950 2247 ft 164 kts 191°
2026-05-08 20:52 35.46413 -80.69202 2027 ft 163 kts 191°
2026-05-08 20:52 35.45306 -80.69454 1809 ft 163 kts 191°
2026-05-08 20:53 35.44185 -80.69699 1577 ft 163 kts 190°
2026-05-08 20:53 35.43071 -80.69943 1346 ft 163 kts 191°
2026-05-08 20:53 35.41951 -80.70199 1134 ft 162 kts 191°
2026-05-08 20:53 35.40837 -80.70451 933 ft 163 kts 191°
2026-05-08 20:54 35.39724 -80.70700 728 ft 164 kts 191°
2026-05-08 20:54 35.38673 -80.70938 667 ft 125 kts 190°
2026-05-08 20:54 35.38098 -80.71066 639 ft 49 kts 190°
2026-05-08 20:54 35.37922 -80.71106 631 ft 12 kts 191°
2026-05-08 20:55 35.37865 -80.71122 629 ft 6 kts 206°
2026-05-08 20:55 35.37848 -80.71172 628 ft 7 kts 277°
2026-05-08 20:55 35.37855 -80.71235 628 ft 6 kts 285°
2026-05-08 20:55 35.37885 -80.71252 628 ft 3 kts 357°
2026-05-08 20:56 35.37909 -80.71249 629 ft 2 kts 10°
2026-05-08 20:56 35.37938 -80.71254 630 ft 5 kts 319°
2026-05-08 20:56 35.37957 -80.71304 630 ft 3 kts 301°
2026-05-08 20:56 35.37977 -80.71325 631 ft 3 kts 323°
2026-05-08 20:57 35.37988 -80.71335 631 ft 0 kts 325°